Terminal Aerodrome Forecast
Issued by NWS Memphis, TN

Home | Current Version | Previous Version | Text Only | Print | Product List | Glossary On
Versions: 1 2 3 4 5 6 7 8 9 10 11 12 13 14 15 16 17 18 19
000
FTUS44 KMEG 042012 AAA
TAFJBR
TAF AMD
KJBR 042012Z 0420/0518 01015G20KT 4SM -FZRAPL BR OVC015
      TEMPO 0420/0424 2SM -PL BR OVC007
     FM050000 02018G28KT 2SM PL BR OVC003
     FM050300 02018G28KT 1SM -SNPL BR OVC003
      TEMPO 0503/0507 1/2SM SN FG
     FM050700 01016G26KT 1/2SM SN FG OVC003
     FM051200 01012G20KT 3SM -SN OVC007
     FM051400 01010G15KT P6SM -SN OVC012=

USA.gov is the U.S. government's official web portal to all federal, state and local government web resources and services.